Weather in Roslavl

Russia / Smolensk Oblast     53°56′50″N   32°51′24″E
temp.,
°C
wind,
m/s
gust,
m/s
humid.,
%
clouds,
%
prec.,
mm/h
press.,
hPa
HPBL,
m
9 march, tue
tue900:00−12nnw36955 0.0 1014123
03:00−14nnw349636 0.0 101687
06:00−15nnw349669 0.0 101786
09:00−14nnw379355 0.0 1019238
12:00−9nnw468415 0.0 1020662
15:00−8nw468255 0.1 1020912
18:00−9nw3688100 0.1 1021232
21:00−12nw239387 0.1 102439
10 march, wed
wed1000:00−14nw229330 0.0 102520
03:00−14w229149 0.0 102522
06:00−12sw2291100 0.0 102548
09:00−10sw4794100 0.6 1025315
12:00−6wsw5890100 1.0 1025590
15:00−4w5787100 1.5 1026764
18:00−6ne2494100 0.4 1026158
21:00−11e4993100 1.1 1028324
11 march, thu
thu1100:00−14e489592 0.1 1030256
03:00−16ese489795 0.1 1031174
06:00−18ese379580 0.0 1032158
09:00−17ese479354 0.0 1033230
12:00−12se468931 0.0 1032327
15:00−9se468843 0.0 1031431
18:00−10se369292 0.0 1030221
21:00−13sse489695 0.1 1030173
12 march, fri
fri1200:00−14sse489794 0.0 1030165
03:00−15sse499791 0.1 1029201
06:00−14sse5119797 0.0 1028248
09:00−10sse6148899 0.0 1026448
12:00−5s81479100 0.0 1024878
15:00−4s91476100 0.0 10221054
18:00−6sse91682100 0.0 1021965
21:00−6s91792100 1.0 1019944
13 march, sat
sat1300:00−6s91793100 2.0 1017983
03:00−5s91794100 3.1 1016719
06:00−3ssw71494100 0.8 1016491
09:00−2ssw5995100 1.1 1017334
12:000s61098100 0.2 1017497
15:000s51199100 0.3 1017475
18:00+1s61295100 0.0 1016511
21:00+1s61295100 0.2 1015548